DLH6VX EDDF-ESSA

Flight info

Callsign DLH6VX
Flight time 1h 46m
Altitude 37000
Route MARUN3W/25C MARUN Y150 TOLGI DCT OBATU DCT BERIM DCT ROSOK DCT SONAL DCT VIBAR/N0377F270 Z227 NILUG
Aircraft A320/M-SDE2E3FGIJ1LORWXYZ/HB1

Departure

Time 2026-05-07 09:58
Airport Frankfurt Main Airport (EDDF)

Arrival

Time 2026-05-07 11:44
Airport Stockholm-Arlanda Airport (ESSA)
Time Latitude Longitude Altitude Speed Heading
2026-05-07 09:19 50.04822 8.58501 363 ft 0 kts 159°
2026-05-07 09:48 50.04829 8.58497 362 ft 4 kts 159°
2026-05-07 09:48 50.04854 8.58483 363 ft 3 kts 159°
2026-05-07 09:49 50.04874 8.58470 364 ft 4 kts 147°
2026-05-07 09:49 50.04891 8.58443 361 ft 4 kts 100°
2026-05-07 09:49 50.04887 8.58407 364 ft 4 kts 69°
2026-05-07 09:49 50.04886 8.58400 363 ft 0 kts 69°
2026-05-07 09:54 50.04902 8.58469 363 ft 16 kts 70°
2026-05-07 09:54 50.04927 8.58612 359 ft 11 kts 111°
2026-05-07 09:55 50.04884 8.58684 362 ft 7 kts 152°
2026-05-07 09:55 50.04853 8.58704 365 ft 3 kts 159°
2026-05-07 09:55 50.04792 8.58739 367 ft 17 kts 161°
2026-05-07 09:55 50.04722 8.58766 371 ft 3 kts 175°
2026-05-07 09:56 50.04712 8.58767 369 ft 0 kts 177°
2026-05-07 09:56 50.04699 8.58767 369 ft 11 kts 180°
2026-05-07 09:56 50.04597 8.58733 371 ft 14 kts 211°
2026-05-07 09:56 50.04529 8.58646 371 ft 12 kts 217°
2026-05-07 09:57 50.04480 8.58558 370 ft 10 kts 248°
2026-05-07 09:57 50.04464 8.58495 372 ft 2 kts 249°
2026-05-07 09:57 50.04462 8.58488 370 ft 9 kts 249°
2026-05-07 09:57 50.04350 8.58010 368 ft 83 kts 250°
2026-05-07 09:58 50.04077 8.56876 364 ft 138 kts 250°
2026-05-07 09:58 50.03687 8.55265 434 ft 174 kts 250°
2026-05-07 09:58 50.03261 8.53523 1039 ft 176 kts 250°
2026-05-07 09:58 50.02829 8.51747 1769 ft 178 kts 250°
2026-05-07 09:59 50.02259 8.49934 2157 ft 198 kts 234°
2026-05-07 09:59 50.01180 8.48458 2632 ft 215 kts 206°
2026-05-07 09:59 49.99742 8.47868 3438 ft 216 kts 188°
2026-05-07 09:59 49.98247 8.47554 4212 ft 217 kts 189°
2026-05-07 10:00 49.96748 8.47232 4967 ft 219 kts 189°
2026-05-07 10:00 49.95241 8.46699 5519 ft 231 kts 198°
2026-05-07 10:00 49.93630 8.45962 5934 ft 250 kts 198°
2026-05-07 10:00 49.92030 8.44874 6595 ft 254 kts 220°
2026-05-07 10:01 49.90939 8.42773 7343 ft 252 kts 249°
2026-05-07 10:01 49.90633 8.40142 8124 ft 249 kts 277°
2026-05-07 10:01 49.91171 8.37611 8925 ft 249 kts 304°
2026-05-07 10:01 49.92425 8.35773 9721 ft 252 kts 331°
2026-05-07 10:02 49.94060 8.34635 10212 ft 268 kts 336°
2026-05-07 10:02 49.95855 8.33471 10457 ft 291 kts 336°
2026-05-07 10:02 49.97801 8.32220 10695 ft 313 kts 336°
2026-05-07 10:02 49.99847 8.30905 11233 ft 322 kts 336°
2026-05-07 10:03 50.01942 8.29595 11914 ft 327 kts 341°
2026-05-07 10:03 50.04187 8.28846 12594 ft 333 kts 354°
2026-05-07 10:03 50.06516 8.28925 13279 ft 339 kts
2026-05-07 10:03 50.08815 8.29836 13954 ft 344 kts 17°
2026-05-07 10:04 50.10322 8.30627 14353 ft 346 kts 17°
2026-05-07 10:04 50.12619 8.31836 14968 ft 349 kts 17°
2026-05-07 10:04 50.14926 8.33051 15622 ft 351 kts 17°
2026-05-07 10:04 50.17251 8.34275 16242 ft 354 kts 17°
2026-05-07 10:05 50.19598 8.35513 16838 ft 358 kts 18°
2026-05-07 10:05 50.21966 8.36758 17436 ft 361 kts 17°
2026-05-07 10:05 50.24359 8.38018 18029 ft 364 kts 17°
2026-05-07 10:05 50.26773 8.39289 18559 ft 368 kts 17°
2026-05-07 10:06 50.29209 8.40569 19078 ft 371 kts 17°
2026-05-07 10:06 50.31659 8.41872 19600 ft 373 kts 18°
2026-05-07 10:06 50.34121 8.43205 20114 ft 376 kts 18°
2026-05-07 10:06 50.36596 8.44563 20639 ft 378 kts 18°
2026-05-07 10:07 50.39090 8.45939 21120 ft 381 kts 18°
2026-05-07 10:07 50.41598 8.47321 21611 ft 383 kts 18°
2026-05-07 10:07 50.44124 8.48711 22110 ft 386 kts 18°
2026-05-07 10:07 50.46666 8.50106 22590 ft 389 kts 18°
2026-05-07 10:08 50.49236 8.51473 23064 ft 391 kts 17°
2026-05-07 10:08 50.51838 8.52754 23528 ft 393 kts 16°
2026-05-07 10:08 50.54468 8.53986 23931 ft 396 kts 15°
2026-05-07 10:08 50.57117 8.55208 24331 ft 398 kts 16°
2026-05-07 10:09 50.59779 8.56443 24713 ft 400 kts 16°
2026-05-07 10:09 50.62452 8.57700 25121 ft 401 kts 16°
2026-05-07 10:09 50.65129 8.58974 25500 ft 404 kts 17°
2026-05-07 10:09 50.67825 8.60269 25870 ft 406 kts 17°
2026-05-07 10:10 50.70527 8.61575 26243 ft 408 kts 17°
2026-05-07 10:10 50.73253 8.62893 26585 ft 410 kts 17°
2026-05-07 10:10 50.75981 8.64213 26953 ft 411 kts 16°
2026-05-07 10:10 50.78697 8.65687 27273 ft 414 kts 23°
2026-05-07 10:11 50.81238 8.67858 27618 ft 417 kts 33°
2026-05-07 10:11 50.83517 8.70708 27955 ft 420 kts 43°
2026-05-07 10:11 50.85471 8.74161 28292 ft 423 kts 52°
2026-05-07 10:11 50.87251 8.77871 28628 ft 425 kts 52°
2026-05-07 10:12 50.89045 8.81605 28955 ft 427 kts 51°
2026-05-07 10:12 50.90844 8.85359 29276 ft 429 kts 52°
2026-05-07 10:12 50.92647 8.89133 29542 ft 432 kts 52°
2026-05-07 10:12 50.94474 8.92959 29689 ft 437 kts 52°
2026-05-07 10:13 50.96294 8.96777 29837 ft 442 kts 52°
2026-05-07 10:13 50.98155 9.00687 29984 ft 446 kts 52°
2026-05-07 10:13 51.00035 9.04642 30146 ft 450 kts 52°
2026-05-07 10:13 51.01944 9.08667 30388 ft 451 kts 52°
2026-05-07 10:14 51.03832 9.12655 30647 ft 452 kts 52°
2026-05-07 10:14 51.05694 9.16594 30913 ft 453 kts 52°
2026-05-07 10:14 51.07609 9.20575 31152 ft 453 kts 49°
2026-05-07 10:14 51.09825 9.24122 31398 ft 453 kts 39°
2026-05-07 10:15 51.12387 9.27031 31648 ft 452 kts 29°
2026-05-07 10:15 51.15207 9.29223 31899 ft 452 kts 20°
2026-05-07 10:15 51.18226 9.30644 32051 ft 454 kts 11°
2026-05-07 10:15 51.21322 9.31701 32179 ft 457 kts 11°
2026-05-07 10:16 51.24441 9.32768 32317 ft 460 kts 11°
2026-05-07 10:16 51.27581 9.33850 32452 ft 464 kts 12°
2026-05-07 10:16 51.30743 9.34945 32594 ft 466 kts 12°
2026-05-07 10:16 51.33918 9.36047 32801 ft 467 kts 11°
2026-05-07 10:17 51.37089 9.37151 33040 ft 468 kts 12°
2026-05-07 10:17 51.40271 9.38263 33299 ft 468 kts 12°
2026-05-07 10:17 51.43447 9.39379 33554 ft 468 kts 12°
2026-05-07 10:17 51.46633 9.40498 33808 ft 468 kts 12°
2026-05-07 10:18 51.49809 9.41612 34037 ft 468 kts 11°
2026-05-07 10:18 51.52988 9.42723 34249 ft 468 kts 11°
2026-05-07 10:18 51.56174 9.43838 34439 ft 469 kts 11°
2026-05-07 10:18 51.59366 9.44963 34629 ft 469 kts 11°
2026-05-07 10:19 51.62558 9.46092 34822 ft 470 kts 11°
2026-05-07 10:19 51.65753 9.47218 34998 ft 471 kts 11°
2026-05-07 10:19 51.68958 9.48348 35200 ft 471 kts 11°
2026-05-07 10:19 51.72163 9.49478 35376 ft 472 kts 11°
2026-05-07 10:20 51.75374 9.50612 35580 ft 472 kts 11°
2026-05-07 10:20 51.78589 9.51750 35756 ft 473 kts 11°
2026-05-07 10:20 51.81772 9.53071 35943 ft 474 kts 18°
2026-05-07 10:20 51.84803 9.55185 36106 ft 475 kts 28°
2026-05-07 10:21 51.87638 9.57938 36275 ft 476 kts 31°
2026-05-07 10:21 51.90459 9.60742 36429 ft 476 kts 31°
2026-05-07 10:21 51.93294 9.63542 36585 ft 477 kts 31°
2026-05-07 10:21 51.96123 9.66329 36745 ft 477 kts 31°
2026-05-07 10:22 51.98962 9.69126 36936 ft 477 kts 31°
2026-05-07 10:22 52.04647 9.74754 37024 ft 478 kts 31°
2026-05-07 10:23 52.10321 9.80396 37026 ft 478 kts 31°
2026-05-07 10:23 52.15988 9.86067 37034 ft 478 kts 31°
2026-05-07 10:24 52.21657 9.91760 37033 ft 479 kts 31°
2026-05-07 10:24 52.27332 9.97462 37038 ft 479 kts 31°
2026-05-07 10:25 52.33006 10.03192 37046 ft 480 kts 31°
2026-05-07 10:25 52.38680 10.08937 37040 ft 480 kts 31°
2026-05-07 10:26 52.44356 10.14702 37041 ft 479 kts 31°
2026-05-07 10:26 52.50024 10.20468 37042 ft 480 kts 31°
2026-05-07 10:27 52.55651 10.26219 37043 ft 480 kts 31°
2026-05-07 10:27 52.61314 10.32019 37060 ft 480 kts 31°
2026-05-07 10:28 52.66980 10.37835 37059 ft 480 kts 31°
2026-05-07 10:28 52.72644 10.43662 37060 ft 480 kts 31°
2026-05-07 10:29 52.78339 10.49410 37058 ft 480 kts 31°
2026-05-07 10:29 52.84048 10.55111 37063 ft 480 kts 30°
2026-05-07 10:30 52.92603 10.63737 37061 ft 480 kts 31°
2026-05-07 10:30 52.98285 10.69531 37060 ft 480 kts 31°
2026-05-07 10:31 53.03975 10.75341 37050 ft 480 kts 31°
2026-05-07 10:31 53.09669 10.81166 37054 ft 481 kts 31°
2026-05-07 10:32 53.15372 10.87016 37059 ft 482 kts 31°
2026-05-07 10:32 53.21080 10.92872 37059 ft 482 kts 31°
2026-05-07 10:33 53.26787 10.98761 37061 ft 482 kts 31°
2026-05-07 10:33 53.32485 11.04665 37065 ft 482 kts 31°
2026-05-07 10:34 53.38173 11.10576 37066 ft 481 kts 31°
2026-05-07 10:34 53.43818 11.16470 37069 ft 481 kts 31°
2026-05-07 10:35 53.49496 11.22402 37074 ft 481 kts 31°
2026-05-07 10:35 53.55169 11.28345 37070 ft 480 kts 31°
2026-05-07 10:36 53.60835 11.34302 37069 ft 480 kts 31°
2026-05-07 10:36 53.66497 11.40289 37072 ft 481 kts 31°
2026-05-07 10:37 53.72160 11.46290 37075 ft 481 kts 32°
2026-05-07 10:37 53.77683 11.52671 37078 ft 481 kts 36°
2026-05-07 10:38 53.83017 11.59515 37064 ft 481 kts 37°
2026-05-07 10:38 53.88344 11.66394 37070 ft 482 kts 36°
2026-05-07 10:39 53.93730 11.73185 37076 ft 482 kts 36°
2026-05-07 10:39 53.99132 11.79929 37077 ft 482 kts 36°
2026-05-07 10:40 54.04533 11.86707 37076 ft 483 kts 36°
2026-05-07 10:40 54.09926 11.93538 37080 ft 483 kts 36°
2026-05-07 10:41 54.15308 12.00393 37087 ft 483 kts 36°
2026-05-07 10:41 54.20697 12.07249 37100 ft 483 kts 34°
2026-05-07 10:42 54.26415 12.13252 37100 ft 483 kts 30°
2026-05-07 10:42 54.32124 12.19158 37099 ft 483 kts 30°
2026-05-07 10:43 54.37773 12.25039 37103 ft 483 kts 30°
2026-05-07 10:43 54.43510 12.31031 37106 ft 483 kts 30°
2026-05-07 10:44 54.48962 12.36735 37103 ft 483 kts 30°
2026-05-07 10:44 54.53007 12.40984 37110 ft 483 kts 30°
2026-05-07 10:45 54.56499 12.44663 37095 ft 483 kts 31°
2026-05-07 10:45 54.60258 12.48628 37092 ft 483 kts 31°
2026-05-07 10:46 54.64389 12.52992 37100 ft 484 kts 30°
2026-05-07 10:46 54.69854 12.58774 37097 ft 484 kts 30°
2026-05-07 10:47 54.74941 12.64175 37103 ft 484 kts 31°
2026-05-07 10:47 54.80682 12.70302 37105 ft 485 kts 31°
2026-05-07 10:48 54.86418 12.76452 37110 ft 485 kts 31°
2026-05-07 10:48 54.92071 12.82846 37102 ft 485 kts 33°
2026-05-07 10:49 54.97699 12.89331 37107 ft 485 kts 32°
2026-05-07 10:49 55.03349 12.95785 37106 ft 486 kts 32°
2026-05-07 10:50 55.08986 13.02287 37121 ft 486 kts 32°
2026-05-07 10:50 55.14589 13.08750 37107 ft 486 kts 32°
2026-05-07 10:51 55.20229 13.15280 37104 ft 486 kts 32°
2026-05-07 10:51 55.25867 13.21839 37100 ft 486 kts 32°
2026-05-07 10:52 55.30585 13.27350 37093 ft 486 kts 32°
2026-05-07 10:52 55.36216 13.33950 37091 ft 486 kts 32°
2026-05-07 10:53 55.41845 13.40561 37087 ft 486 kts 32°
2026-05-07 10:53 55.47468 13.47181 37070 ft 487 kts 33°
2026-05-07 10:54 55.53099 13.53836 37068 ft 487 kts 32°
2026-05-07 10:54 55.58732 13.60510 37081 ft 488 kts 32°
2026-05-07 10:55 55.64363 13.67227 37078 ft 488 kts 32°
2026-05-07 10:55 55.69957 13.73918 37073 ft 489 kts 32°
2026-05-07 10:56 55.75591 13.80680 37067 ft 489 kts 32°
2026-05-07 10:56 55.81229 13.87447 37089 ft 489 kts 32°
2026-05-07 10:57 55.86862 13.94249 37083 ft 490 kts 32°
2026-05-07 10:57 55.92494 14.01087 37082 ft 490 kts 32°
2026-05-07 10:58 55.98126 14.07938 37086 ft 490 kts 33°
2026-05-07 10:58 56.03760 14.14812 37104 ft 490 kts 32°
2026-05-07 10:59 56.09390 14.21702 37097 ft 490 kts 32°
2026-05-07 10:59 56.15017 14.28626 37090 ft 490 kts 33°
2026-05-07 11:00 56.20634 14.35563 37083 ft 490 kts 33°
2026-05-07 11:00 56.26255 14.42533 37083 ft 491 kts 33°
2026-05-07 11:01 56.31869 14.49526 37068 ft 491 kts 33°
2026-05-07 11:01 56.37489 14.56537 37056 ft 492 kts 33°
2026-05-07 11:02 56.43114 14.63566 37049 ft 492 kts 33°
2026-05-07 11:02 56.48745 14.70644 37054 ft 493 kts 33°
2026-05-07 11:03 56.54332 14.77704 37071 ft 493 kts 33°
2026-05-07 11:03 56.59966 14.84828 37069 ft 494 kts 33°
2026-05-07 11:04 56.65598 14.91966 37066 ft 494 kts 33°
2026-05-07 11:04 56.71216 14.99147 37067 ft 494 kts 33°
2026-05-07 11:05 56.76837 15.06346 37079 ft 494 kts 33°
2026-05-07 11:05 56.82455 15.13559 37070 ft 494 kts 33°
2026-05-07 11:06 56.88073 15.20807 37070 ft 494 kts 33°
2026-05-07 11:06 56.93684 15.28075 37066 ft 494 kts 33°
2026-05-07 11:07 56.99292 15.35365 37090 ft 494 kts 33°
2026-05-07 11:07 57.04895 15.42684 37078 ft 494 kts 33°
2026-05-07 11:08 57.10496 15.50015 37070 ft 494 kts 33°
2026-05-07 11:08 57.16091 15.57370 37068 ft 494 kts 33°
2026-05-07 11:09 57.21687 15.64753 37044 ft 495 kts 33°
2026-05-07 11:09 57.27291 15.72173 37056 ft 496 kts 33°
2026-05-07 11:10 57.32911 15.79630 37055 ft 497 kts 33°
2026-05-07 11:10 57.38526 15.87128 37062 ft 498 kts 33°
2026-05-07 11:11 57.44143 15.94667 37069 ft 498 kts 33°
2026-05-07 11:11 57.49703 16.02146 37042 ft 490 kts 33°
2026-05-07 11:12 57.52422 16.05819 37065 ft 478 kts 33°
2026-05-07 11:12 57.55097 16.09438 37067 ft 473 kts 33°
2026-05-07 11:12 57.60407 16.16622 37065 ft 471 kts 33°
2026-05-07 11:13 57.65708 16.23827 37068 ft 471 kts 33°
2026-05-07 11:13 57.71000 16.31057 37077 ft 471 kts 33°
2026-05-07 11:14 57.76287 16.38303 37073 ft 471 kts 33°
2026-05-07 11:14 57.81577 16.45576 36976 ft 472 kts 33°
2026-05-07 11:15 57.84222 16.49218 36718 ft 471 kts 33°
2026-05-07 11:15 57.86858 16.52861 36485 ft 470 kts 33°
2026-05-07 11:15 57.89488 16.56507 36223 ft 469 kts 33°
2026-05-07 11:15 57.92111 16.60151 35969 ft 468 kts 33°
2026-05-07 11:16 57.94718 16.63784 35747 ft 465 kts 33°
2026-05-07 11:16 57.97309 16.67398 35405 ft 462 kts 33°
2026-05-07 11:16 57.99878 16.71027 34849 ft 461 kts 34°
2026-05-07 11:16 58.02413 16.74695 34464 ft 455 kts 34°
2026-05-07 11:17 58.04917 16.78313 33756 ft 456 kts 33°
2026-05-07 11:17 58.07468 16.81917 33104 ft 455 kts 33°
2026-05-07 11:17 58.09997 16.85450 32614 ft 451 kts 33°
2026-05-07 11:17 58.12522 16.88956 32061 ft 448 kts 33°
2026-05-07 11:18 58.15022 16.92432 31536 ft 445 kts 33°
2026-05-07 11:18 58.17506 16.95909 31008 ft 442 kts 33°
2026-05-07 11:18 58.19968 16.99379 30517 ft 440 kts 33°
2026-05-07 11:18 58.22419 17.02848 29955 ft 438 kts 33°
2026-05-07 11:19 58.24814 17.06245 29457 ft 433 kts 33°
2026-05-07 11:19 58.27211 17.09655 28975 ft 428 kts 33°
2026-05-07 11:19 58.29580 17.13032 28511 ft 423 kts 33°
2026-05-07 11:19 58.31922 17.16374 28045 ft 418 kts 33°
2026-05-07 11:20 58.34233 17.19668 27581 ft 414 kts 32°
2026-05-07 11:20 58.36525 17.22933 27124 ft 410 kts 32°
2026-05-07 11:20 58.38428 17.25643 26738 ft 407 kts 32°
2026-05-07 11:20 58.40115 17.28058 26382 ft 404 kts 33°
2026-05-07 11:21 58.42350 17.31272 25915 ft 401 kts 33°
2026-05-07 11:21 58.43344 17.32702 25715 ft 401 kts 32°
2026-05-07 11:21 58.44364 17.34168 25480 ft 400 kts 32°
2026-05-07 11:21 58.45932 17.36423 25124 ft 399 kts 32°
2026-05-07 11:22 58.47975 17.39363 24674 ft 398 kts 32°
2026-05-07 11:22 58.50187 17.42557 24170 ft 397 kts 32°
2026-05-07 11:22 58.52389 17.45740 23664 ft 397 kts 32°
2026-05-07 11:22 58.54589 17.48928 23098 ft 396 kts 33°
2026-05-07 11:23 58.56772 17.52104 22607 ft 393 kts 33°
2026-05-07 11:23 58.58938 17.55260 22119 ft 390 kts 33°
2026-05-07 11:23 58.61093 17.58401 21639 ft 388 kts 32°
2026-05-07 11:23 58.63357 17.60957 21487 ft 368 kts 16°
2026-05-07 11:24 58.65715 17.62539 21405 ft 352 kts 13°
2026-05-07 11:24 58.67997 17.64032 21348 ft 340 kts 13°
2026-05-07 11:24 58.70198 17.65471 21267 ft 329 kts 13°
2026-05-07 11:24 58.72376 17.66881 21191 ft 330 kts 12°
2026-05-07 11:25 58.74553 17.68286 21109 ft 330 kts 12°
2026-05-07 11:25 58.76733 17.69691 21033 ft 330 kts 12°
2026-05-07 11:25 58.78909 17.71091 20957 ft 330 kts 12°
2026-05-07 11:25 58.81083 17.72490 20884 ft 329 kts 12°
2026-05-07 11:26 58.83227 17.73873 20809 ft 329 kts 13°
2026-05-07 11:26 58.85393 17.75283 20731 ft 328 kts 13°
2026-05-07 11:26 58.87554 17.76695 20656 ft 328 kts 13°
2026-05-07 11:26 58.89715 17.78104 20586 ft 328 kts 13°
2026-05-07 11:27 58.91876 17.79511 20509 ft 327 kts 13°
2026-05-07 11:27 58.94032 17.80922 20429 ft 328 kts 13°
2026-05-07 11:27 58.96273 17.82379 20175 ft 346 kts 13°
2026-05-07 11:27 58.98562 17.83871 19865 ft 347 kts 13°
2026-05-07 11:28 59.00851 17.85373 19566 ft 347 kts 13°
2026-05-07 11:28 59.03131 17.86883 19271 ft 346 kts 13°
2026-05-07 11:28 59.05402 17.88388 18974 ft 344 kts 13°
2026-05-07 11:28 59.07661 17.89878 18683 ft 342 kts 13°
2026-05-07 11:29 59.09918 17.91359 18398 ft 342 kts 13°
2026-05-07 11:29 59.12162 17.92830 18068 ft 339 kts 13°
2026-05-07 11:29 59.14384 17.94302 17738 ft 337 kts 13°
2026-05-07 11:29 59.16598 17.95777 17410 ft 335 kts 14°
2026-05-07 11:30 59.18795 17.97247 17081 ft 333 kts 13°
2026-05-07 11:30 59.20979 17.98710 16761 ft 331 kts 14°
2026-05-07 11:30 59.23152 18.00166 16466 ft 330 kts 13°
2026-05-07 11:30 59.25325 18.01616 16076 ft 330 kts 13°
2026-05-07 11:31 59.27495 18.03057 15684 ft 329 kts 13°
2026-05-07 11:31 59.29663 18.04504 15306 ft 329 kts 13°
2026-05-07 11:31 59.31825 18.05948 14929 ft 329 kts 13°
2026-05-07 11:31 59.33988 18.07396 14593 ft 327 kts 14°
2026-05-07 11:32 59.38244 18.09795 14144 ft 314 kts
2026-05-07 11:32 59.40359 18.10782 13837 ft 311 kts
2026-05-07 11:32 59.42462 18.11755 13489 ft 310 kts
2026-05-07 11:33 59.44552 18.12713 13141 ft 308 kts
2026-05-07 11:33 59.46631 18.13655 12803 ft 305 kts
2026-05-07 11:33 59.48696 18.14586 12468 ft 304 kts
2026-05-07 11:33 59.50747 18.15513 12144 ft 302 kts
2026-05-07 11:34 59.52787 18.16435 11809 ft 300 kts
2026-05-07 11:34 59.54813 18.17339 11481 ft 298 kts
2026-05-07 11:34 59.56826 18.18226 11149 ft 296 kts
2026-05-07 11:34 59.58829 18.19099 10810 ft 294 kts
2026-05-07 11:35 59.60819 18.19956 10499 ft 291 kts
2026-05-07 11:35 59.62817 18.20801 9920 ft 295 kts
2026-05-07 11:35 59.64782 18.21614 9259 ft 291 kts
2026-05-07 11:35 59.66753 18.22406 8613 ft 286 kts
2026-05-07 11:36 59.68696 18.23006 7978 ft 280 kts
2026-05-07 11:36 59.70625 18.23141 7375 ft 275 kts 358°
2026-05-07 11:36 59.72510 18.23185 6867 ft 268 kts 358°
2026-05-07 11:36 59.74361 18.23136 6342 ft 263 kts 351°
2026-05-07 11:37 59.76121 18.22237 5821 ft 262 kts 339°
2026-05-07 11:37 59.77846 18.20992 5276 ft 265 kts 338°
2026-05-07 11:37 59.79554 18.19747 4772 ft 258 kts 338°
2026-05-07 11:37 59.81203 18.18560 4371 ft 246 kts 338°
2026-05-07 11:38 59.82775 18.17392 3964 ft 235 kts 330°
2026-05-07 11:38 59.83934 18.15303 3579 ft 223 kts 297°
2026-05-07 11:38 59.84303 18.12415 3181 ft 214 kts 264°
2026-05-07 11:38 59.83819 18.09701 2803 ft 212 kts 230°
2026-05-07 11:39 59.82757 18.07650 2501 ft 212 kts 219°
2026-05-07 11:39 59.81649 18.05849 2497 ft 199 kts 218°
2026-05-07 11:39 59.80591 18.04166 2525 ft 193 kts 217°
2026-05-07 11:39 59.79580 18.02546 2519 ft 178 kts 217°
2026-05-07 11:40 59.78659 18.01141 2506 ft 158 kts 206°
2026-05-07 11:40 59.77660 18.00549 2525 ft 145 kts 189°
2026-05-07 11:40 59.76679 18.00190 2488 ft 141 kts 189°
2026-05-07 11:40 59.75720 17.99837 2340 ft 139 kts 189°
2026-05-07 11:41 59.74775 17.99491 2153 ft 137 kts 189°
2026-05-07 11:41 59.74155 17.99265 2036 ft 137 kts 189°
2026-05-07 11:41 59.73221 17.98924 1850 ft 136 kts 190°
2026-05-07 11:41 59.72287 17.98583 1667 ft 137 kts 189°
2026-05-07 11:42 59.71360 17.98245 1474 ft 134 kts 189°
2026-05-07 11:42 59.70440 17.97910 1297 ft 135 kts 189°
2026-05-07 11:42 59.69518 17.97574 1100 ft 134 kts 189°
2026-05-07 11:42 59.68299 17.97129 821 ft 135 kts 189°
2026-05-07 11:43 59.67676 17.96900 736 ft 135 kts 191°
2026-05-07 11:43 59.66750 17.96555 529 ft 136 kts 190°
2026-05-07 11:43 59.65830 17.96210 386 ft 135 kts 189°
2026-05-07 11:43 59.64916 17.95891 213 ft 133 kts 191°
2026-05-07 11:44 59.64056 17.95568 144 ft 110 kts 190°
2026-05-07 11:44 59.63472 17.95380 144 ft 62 kts 190°
2026-05-07 11:44 59.63120 17.95250 143 ft 40 kts 193°
2026-05-07 11:44 59.62909 17.94997 139 ft 25 kts 223°
2026-05-07 11:45 59.62853 17.94799 138 ft 10 kts 295°
2026-05-07 11:45 59.62916 17.94770 138 ft 9 kts
2026-05-07 11:45 59.62990 17.94791 138 ft 17 kts
2026-05-07 11:45 59.63150 17.94852 138 ft 25 kts 10°
2026-05-07 11:46 59.63319 17.94914 138 ft 24 kts 11°
2026-05-07 11:46 59.63492 17.94977 138 ft 25 kts
2026-05-07 11:46 59.63668 17.95040 138 ft 27 kts 11°
2026-05-07 11:46 59.63854 17.95108 138 ft 28 kts 10°
2026-05-07 11:47 59.64052 17.95180 138 ft 29 kts 11°
2026-05-07 11:47 59.64256 17.95257 138 ft 31 kts
2026-05-07 11:47 59.64473 17.95332 138 ft 32 kts 10°
2026-05-07 11:47 59.64700 17.95414 138 ft 34 kts 11°
2026-05-07 11:48 59.64918 17.95493 138 ft 26 kts 11°
2026-05-07 11:48 59.65102 17.95480 138 ft 27 kts 346°
2026-05-07 11:48 59.65292 17.95382 138 ft 29 kts 346°
2026-05-07 11:48 59.65492 17.95280 138 ft 30 kts 344°
2026-05-07 11:49 59.65682 17.95173 138 ft 23 kts 343°
2026-05-07 11:49 59.65823 17.95066 138 ft 19 kts 302°
2026-05-07 11:49 59.65810 17.94815 138 ft 19 kts 256°
2026-05-07 11:49 59.65775 17.94548 138 ft 21 kts 254°
2026-05-07 11:50 59.65738 17.94257 138 ft 23 kts 256°
2026-05-07 11:50 59.65698 17.93945 138 ft 24 kts 256°
2026-05-07 11:50 59.65656 17.93614 138 ft 25 kts 255°
2026-05-07 11:50 59.65614 17.93280 138 ft 18 kts 257°
2026-05-07 11:51 59.65553 17.93155 138 ft 10 kts 173°
2026-05-07 11:51 59.65479 17.93188 137 ft 12 kts 160°
2026-05-07 11:51 59.65409 17.93193 137 ft 9 kts 225°
2026-05-07 11:51 59.65383 17.93145 137 ft 2 kts 224°
2026-05-07 11:52 59.65381 17.93142 137 ft 0 kts 224°
2026-05-07 11:56 59.65381 17.93141 138 ft 0 kts 224°